sat.trackr.live / text

‹ back to catalog

STARLINK-5177

NORAD 54090 · 2022-136AR

PAYLOAD ACTIVE UNKNOWN

§ Identity

Operator
Country
US
Launch date
2022-10-20
Launch site
AFETR
Launch vehicle
Mass (kg)
RCS (m²)

Purposes: comms

External: N2YO · Heavens-Above · Gunter

§ Orbital elements

Epoch: 2026-09-20T22:00:03.000096Z

Period
94.40 min
Inclination
53.1612°
Eccentricity
0.0002099
Mean motion
15.25491177 rev/d
Perigee alt
487.9 km
Apogee alt
490.8 km
Semi-major
6,867.4 km
B*
2.7300e-4
RAAN
175.7359°
Arg perigee
72.1634°
Mean anomaly
356.9832°
Rev number
580

§ Raw data

STARLINK-51771 54090U 22136AR  26263.91670139  .00006669  00000+0  27300-3 0  99982 54090  53.1612 175.7359 0002099  72.1634 356.9832 15.25491177  5809

JSON: /api/v1/satellites/54090 · /tle

For live sub-satellite position, see the globe view (requires WebGL).

§ Visibility from observer

Set your observer location to see the next 7 days of passes ≥ 10°. The values pass through the URL so the page stays shareable.

No JS? Fill the form by hand. The geolocation button needs JavaScript.